Walla Walla, WA
on Tuesday, December 11, 2012

Tuesday
Previous Day Next Day
Daily Summary
 ActualAverage (KPDT)Record (KPDT)
Temperature
Mean Temperature °F 33°F  
Max Temperature 48°F 40°F 67°F (1924)
Min Temperature 41°F 27°F -10°F (1932)
Degree Days
Heating Degree Days 20 32  
Month to date heating degree days 336  
Since 1 July heating degree days 1589  
Cooling Degree Days 0 0  
Month to date cooling degree days 0  
Year to date cooling degree days 636  
Moisture
Dew Point 34°F   
Average Humidity 69    
Maximum Humidity 89    
Minimum Humidity 50    
Precipitation
Precipitation 0.22 in 0.05 in 0.98 in (1899)
Month to date precipitation 0.54  
Year to date precipitation 11.73  
Snow
Snow 0.00 in 0.20 in 2.30 in (1971)
Month to date snowfall 1.8  
Year to date snowfall 11.0  
Since 1 July snowfall 3.3  
Snow Depth in   
Wind
Wind Speed 8 mph   
Max Wind Speed 15 mph   
Max Gust Speed mph   
Visibility 10 miles   
Events Rain   

Key: T is trace of precipitation, MM is missing value
Source: NWS Daily Summary
Time(PST)TemperatureDew PointHumidity Pressure Visibility Wind DirectionWind SpeedGust SpeedPrecipitationEvents Conditions
12:53 AM 43.0°F 33.1°F 68% 30.05 in 10.0 miles South 9.2 mph - N/A   Clear
1:53 AM 45.0°F 32.0°F 60% 30.01 in 10.0 miles SSW 11.5 mph - N/A   Clear
2:53 AM 46.9°F 30.9°F 54% 29.99 in 10.0 miles South 12.7 mph - N/A   Clear
3:53 AM 44.1°F 30.0°F 58% 29.93 in 10.0 miles South 6.9 mph - N/A   Clear
4:53 AM 46.0°F 30.0°F 54% 29.87 in 10.0 miles South 11.5 mph - N/A   Clear
5:53 AM 48.0°F 30.0°F 50% 29.84 in 10.0 miles SW 5.8 mph - N/A   Clear
6:53 AM 43.0°F 30.9°F 62% 29.82 in 10.0 miles WSW 5.8 mph - N/A   Clear
7:53 AM 44.1°F 32.0°F 63% 29.80 in 10.0 miles Calm Calm - N/A   Clear
8:53 AM 45.0°F 33.1°F 63% 29.77 in 10.0 miles SW 5.8 mph - N/A   Clear
9:53 AM 45.0°F 34.0°F 65% 29.75 in 10.0 miles Calm Calm - N/A   Mostly Cloudy
10:53 AM 46.9°F 36.0°F 66% 29.72 in 10.0 miles Calm Calm - N/A   Partly Cloudy
11:53 AM 46.9°F 33.1°F 59% 29.70 in 10.0 miles West 5.8 mph - N/A   Scattered Clouds
12:53 PM 46.9°F 34.0°F 61% 29.67 in 10.0 miles South 10.4 mph - N/A   Mostly Cloudy
1:53 PM 46.0°F 33.1°F 61% 29.64 in 10.0 miles SSW 12.7 mph - N/A   Mostly Cloudy
2:53 PM 46.0°F 34.0°F 63% 29.64 in 10.0 miles SW 4.6 mph - N/A   Overcast
3:53 PM 45.0°F 34.0°F 65% 29.62 in 10.0 miles South 9.2 mph - N/A   Overcast
4:53 PM 44.1°F 34.0°F 68% 29.64 in 10.0 miles South 11.5 mph - N/A   Overcast
5:53 PM 44.1°F 35.1°F 71% 29.62 in 10.0 miles South 8.1 mph - 0.00 in Rain Light Rain
6:53 PM 43.0°F 37.0°F 80% 29.63 in 7.0 miles SSW 15.0 mph - 0.04 in Rain Rain
7:53 PM 42.1°F 37.9°F 85% 29.62 in 7.0 miles SSE 3.5 mph - 0.08 in Rain Light Rain
8:36 PM 41.0°F 37.4°F 87% 29.61 in 6.0 miles Calm Calm - 0.05 in Rain Rain
8:53 PM 41.0°F 37.9°F 89% 29.62 in 6.0 miles South 3.5 mph - 0.06 in Rain Light Rain
9:53 PM 41.0°F 37.9°F 89% 29.61 in 10.0 miles SE 8.1 mph - 0.04 in Rain Light Rain
10:03 PM 42.8°F 37.4°F 81% 29.59 in 10.0 miles SE 6.9 mph - 0.00 in Rain Light Rain
10:53 PM 42.1°F 37.9°F 85% 29.61 in 10.0 miles South 8.1 mph - 0.00 in   Overcast
11:53 PM 44.1°F 37.9°F 79% 29.60 in 10.0 miles South 8.1 mph - N/A   Overcast
Moon Phase
Dec. 11 Dec. 13 Dec. 20 Dec. 28 Jan. 04
Sunrise:07:25 AM (PST) Moon Rise:05:23 AM (PST)12/11
Sunset:04:07 PM (PST) Moon Set:02:53 PM (PST)12/11

Copyright © 2014 The Weather Underground, Inc.